Regional Weather Roundup
Issued by NWS

Home | Current Version | Previous Version | Graphics & Text | Print | Product List | Glossary On
Versions: 1 2 3 4 5 6 7 8 9 10 11 12 13 14 15 16 17 18 19 20 21 22 23 24 25 26 27 28 29 30 31 32 33 34 35 36 37 38 39 40 41 42 43 44 45 46 47 48 49 50
000
ASUS43 KMKX 281000
RWRWI

WISCONSIN REGIONAL WEATHER ROUNDUP
NATIONAL WEATHER SERVICE MILWAUKEE/SULLIVAN WI
500 AM CDT FRI JUL 28 2017

NOTE: "FAIR" INDICATES FEW OR NO CLOUDS BELOW 12,000 FEET WITH NO
SIGNIFICANT WEATHER AND/OR OBSTRUCTIONS TO VISIBILITY.

WIZ001-002-006>008-014>016-023>028-281100-
NORTHWEST WISCONSIN

CITY           SKY/WX    TMP DP  RH WIND       PRES   REMARKS
SUPERIOR ARPT  NOT AVBL
ASHLAND        FOG       50  50 100 SW3       30.12R VSB 1/4
HAYWARD        CLEAR     52  50  93 CALM      30.12R
SIREN          CLEAR     55  53  93 CALM      30.10S
CUMBERLAND     CLEAR     57  55  94 NE3       30.10S
RICE LAKE      CLEAR     56  55  94 N5        30.11S
CHETEK         CLEAR     63  59  87 NE3       30.09S
LADYSMITH      CLEAR     59  55  85 E3        30.12S
EAU CLAIRE     NOT AVBL
MENOMONIE      CLEAR     62  59  91 N3        30.07S
NEW RICHMOND   CLEAR     59  58  97 CALM      30.08S
OSCEOLA        CLEAR     58  58 100 CALM      30.11S
$$

WIZ003>005-009-010-017-018-281100-
NORTH CENTRAL WISCONSIN

CITY           SKY/WX    TMP DP  RH WIND       PRES   REMARKS
MANITOWISH WTR FOG       47  47 100 CALM      30.13R VSB 1/4
ARBOR VITAE    CLEAR     52  51  95 CALM      30.12S
WOODRUFF       CLEAR     52  51  95 CALM      30.12S
RHINELANDER    CLEAR     48  48 100 CALM      30.13R
EAGLE RIVER    CLEAR     48  48 100 CALM      30.12S
LAND O LAKES   CLEAR     45  45 100 CALM      30.15S FOG
PHILLIPS       CLEAR     51  51 100 CALM      30.11S
TOMAHAWK         N/A     46  45  97 CALM      30.12F FOG
MEDFORD        CLEAR     54  53  97 CALM      30.10S
MERRILL        CLEAR     50  50 100 CALM      30.11S
$$

WIZ029-030-035-036-043>047-281100-
CENTRAL WISCONSIN

CITY           SKY/WX    TMP DP  RH WIND       PRES   REMARKS
WAUSAU         CLEAR     58  56  93 N6        30.08S
MOSINEE        CLEAR     57  57 100 NE5       30.10S
MARSHFIELD     CLEAR     60  57  89 NE5       30.07S
STEVENS POINT  CLEAR     56  56 100 CALM      30.09S
WAUPACA        CLEAR     60  58  91 N3        30.07S
WAUTOMA        CLEAR     60  56  86 NE3       30.06S
WISC RAPIDS    CLEAR     63  58  83 NE8       30.08S
CAMP DOUGLAS   FOG       59  59 100 CALM      30.06R VSB 1/2
$$

WIZ011>013-019>022-031-037>040-048>050-281100-
NORTHEAST WISCONSIN

CITY           SKY/WX    TMP DP  RH WIND       PRES   REMARKS
ANTIGO         CLEAR     49  49 100 N5        30.11R
SHAWANO        CLEAR     59  54  82 N5        30.07S
OCONTO         CLEAR     52  51  96 CALM      30.05F
STURGEON BAY     N/A     60  58  92 N7        30.05S
GREEN BAY      CLEAR     56  54  93 N5        30.04F
MANITOWOC      NOT AVBL
APPLETON       CLEAR     55  50  82 N7        30.04F
CLINTONVILLE   CLEAR    N/A N/A N/A N3        30.07S
OSHKOSH        MOCLDY    64  57  78 NE8       30.04S
$$

WIZ032>034-041-042-053>061-281100-
SOUTHWEST WISCONSIN

CITY           SKY/WX    TMP DP  RH WIND       PRES   REMARKS
LA CROSSE      CLEAR     68  64  87 CALM      30.03S
SPARTA         CLEAR     56  56 100 CALM      30.06R
VIROQUA        PTCLDY    63  61  94 SE5       30.05F
BOSCOBEL       FOG       65  64  97 CALM      30.04R VSB 1/4
PRAIRIE DU CHI FOG       63  62  96 E3        30.03R VSB 1
PLATTEVILLE    CLEAR     62  59  90 NE5       30.03S
$$

WIZ056-057-062-063-064-067-068-281100-
SOUTH CENTRAL WISCONSIN

CITY           SKY/WX    TMP DP  RH WIND       PRES   REMARKS
REEDSBURG      PTCLDY    63  63 100 CALM      30.04S
BARABOO/DELLS  PTCLDY    63  57  83 NE3       30.05R
LONE ROCK      NOT AVBL
MINERAL POINT  CLOUDY    64  59  82 NE5       30.04S
MADISON        CLEAR     60  56  86 N5        30.02F
MIDDLETON      CLOUDY    62  59  90 CALM      30.04S
WATERTOWN      MOCLDY    60  59  97 N6        30.01F
MONROE         CLEAR     59  54  82 N7        30.01S
JANESVILLE     CLEAR     63  55  77 NE6       29.99S
$$

WIZ051-052-058>065-066-070>072-281100-
SOUTHEAST WISCONSIN

CITY           SKY/WX    TMP DP  RH WIND       PRES   REMARKS
MILWAUKEE      PTCLDY    67  63  87 N15       30.00R
WAUKESHA       CLEAR     59  55  88 N7        30.02S
MILWAUKEE/TIMM CLEAR     61  55  82 N6        30.02S
RACINE         CLEAR     67  63  87 N14       30.00R
KENOSHA        CLEAR     66  62  87 N8        29.98S
FOND DU LAC    CLOUDY    65  54  67 NE10      30.05R
SHEBOYGAN      CLOUDY    62  59  90 N10       30.03R
WEST BEND      CLOUDY    63  59  88 N6        30.02F
JUNEAU         CLOUDY    62  56  81 N3        30.04S
$$

LSZ147-162-281100-
LAKE SUPERIOR

STATION/POSITION TIME  TEMP    WIND        PRES    WAVE
                       AIR SEA DIR/SP/G            HT/PER
                 (UTC) (F)     (DEG/KT/KT) (MB)    (FT/S)
W MID LAKE BUOY  0850   59 54   20/  4/  4 1019.4R   0
DEVILS ISLAND    0900   62      60/  6/  7 1019.3S
SAXON HARBOR     0930   57     210/  3/  4 1019.0S
$$

LMZ867-665-643>646-281100-
LAKE MICHIGAN

STATION/POSITION TIME  TEMP    WIND        PRES    WAVE
                       AIR SEA DIR/SP/G            HT/PER
                 (UTC) (F)     (DEG/KT/KT) (MB)    (FT/S)
CHAMBERS ISLAND  0940   65     360/ 13/ 15 1016.9S
S GREEN BAY BUOY 0930   65 71  360/ 14/ 16 1017.3R
N MID LAKE BUOY  0850   63 66  350/ 12/ 14 1017.7R   2/ 4
NORTHPORT PIER   0940   63     360/  5/  7 1017.3S
KEWAUNEE LAKESHO 0930   60     330/  2/  4 1016.5R
SHEBOYGAN LAKESH 0900   65     350/ 15/ 16 1016.1S
PORT WASHINGTON  0930   65     330/  5/  9 1017.3R
MILWAUKEE LAKESH 0930   67      20/ 15/ 18   N/A
S MID LAKE BUOY  0850   71 72   60/ 10/ 12 1014.1F   3/ 6
KENOSHA   LAKESH 0900   69      20/ 17/ 19 1014.6
$$

TC  - TEMPERATURE IN CELSIUS
VSB - VISIBILITY IN STATUTE MILES
WCI - WIND CHILL INDEX
HX  - HEAT INDEX





USA.gov is the U.S. government's official web portal to all federal, state and local government web resources and services.